Back to catalog

BREEZE-M R/B

AliveMEO
NORAD 33598·ROCKET BODY·🇷🇺 Russia

Launched Feb 11, 2009 from Baikonur Cosmodrome

Loading…

Next Passes (next 24 hours)

TLE

FreshSource: Space-Track

Epoch: Sep 14, 2026, 04:20 UTC

1 33598U 09007D   26257.18087056 -.00000309  00000-0  00000-0 0  9994
2 33598  12.5967  35.7079 0201436  63.6056 126.4972  0.97633049 63149

Track BREEZE-M R/B in real time with AllMySat

Download on the App Store